WZZ682B EDDF-EPWA

Flight info

Callsign WZZ682B
Flight time 1h 14m
Altitude 35000
Route SULUS7S/18 SULUS L984 OKG DCT BALTU DCT LEGAZ DCT LAGAR DCT OKENO Q277 AGAVA
Aircraft A321/M-SDE3FGHIRWY/LB1

Departure

Time 2026-05-05 17:00
Airport Frankfurt Main Airport (EDDF)

Arrival

Time 2026-05-05 18:15
Airport Warsaw Chopin Airport (EPWA)
Time Latitude Longitude Altitude Speed Heading
2026-05-05 16:21 50.04042 8.55546 351 ft 0 kts 160°
2026-05-05 16:52 50.04020 8.55558 356 ft 8 kts 160°
2026-05-05 16:53 50.03957 8.55549 355 ft 9 kts 241°
2026-05-05 16:53 50.03972 8.55476 356 ft 9 kts 317°
2026-05-05 16:53 50.04038 8.55427 357 ft 6 kts 339°
2026-05-05 16:53 50.04041 8.55425 358 ft 0 kts 339°
2026-05-05 16:54 50.04047 8.55422 356 ft 5 kts 339°
2026-05-05 16:54 50.04090 8.55328 355 ft 18 kts 265°
2026-05-05 16:55 50.04045 8.55131 357 ft 18 kts 250°
2026-05-05 16:55 50.04004 8.54958 359 ft 16 kts 250°
2026-05-05 16:55 50.03963 8.54785 355 ft 17 kts 250°
2026-05-05 16:55 50.03923 8.54617 356 ft 16 kts 250°
2026-05-05 16:56 50.03884 8.54455 351 ft 18 kts 249°
2026-05-05 16:56 50.03828 8.54298 352 ft 16 kts 235°
2026-05-05 16:56 50.03782 8.54153 348 ft 14 kts 253°
2026-05-05 16:56 50.03752 8.54018 344 ft 13 kts 250°
2026-05-05 16:57 50.03717 8.53879 353 ft 17 kts 249°
2026-05-05 16:57 50.03673 8.53695 345 ft 18 kts 250°
2026-05-05 16:57 50.03628 8.53516 338 ft 17 kts 249°
2026-05-05 16:57 50.03586 8.53345 338 ft 17 kts 249°
2026-05-05 16:58 50.03546 8.53177 334 ft 17 kts 250°
2026-05-05 16:58 50.03499 8.52980 335 ft 20 kts 249°
2026-05-05 16:58 50.03444 8.52777 333 ft 19 kts 247°
2026-05-05 16:58 50.03431 8.52722 331 ft 0 kts 250°
2026-05-05 16:59 50.03428 8.52710 332 ft 5 kts 250°
2026-05-05 16:59 50.03394 8.52621 332 ft 14 kts 222°
2026-05-05 16:59 50.03337 8.52595 335 ft 0 kts 181°
2026-05-05 16:59 50.03233 8.52595 335 ft 45 kts 179°
2026-05-05 17:00 50.02686 8.52599 335 ft 110 kts 179°
2026-05-05 17:00 50.01742 8.52610 331 ft 160 kts 179°
2026-05-05 17:00 50.00538 8.52608 653 ft 175 kts 180°
2026-05-05 17:00 49.99324 8.52673 1207 ft 175 kts 179°
2026-05-05 17:01 49.98091 8.52772 1764 ft 180 kts 180°
2026-05-05 17:01 49.96821 8.52873 2247 ft 188 kts 180°
2026-05-05 17:01 49.95445 8.52966 2429 ft 209 kts 180°
2026-05-05 17:01 49.93927 8.53068 2618 ft 226 kts 180°
2026-05-05 17:02 49.92358 8.53177 3165 ft 230 kts 180°
2026-05-05 17:02 49.90753 8.53292 3784 ft 233 kts 179°
2026-05-05 17:02 49.89139 8.53408 3955 ft 231 kts 179°
2026-05-05 17:02 49.87539 8.53517 3996 ft 230 kts 179°
2026-05-05 17:03 49.85943 8.53624 4002 ft 229 kts 179°
2026-05-05 17:03 49.84348 8.53734 4002 ft 229 kts 179°
2026-05-05 17:03 49.82723 8.54004 4010 ft 250 kts 164°
2026-05-05 17:03 49.81218 8.55456 4006 ft 264 kts 131°
2026-05-05 17:04 49.80463 8.58075 4444 ft 274 kts 97°
2026-05-05 17:04 49.80637 8.61029 5151 ft 279 kts 78°
2026-05-05 17:04 49.81072 8.63964 5865 ft 281 kts 79°
2026-05-05 17:04 49.81485 8.66933 6544 ft 284 kts 79°
2026-05-05 17:05 49.81887 8.69937 7197 ft 287 kts 80°
2026-05-05 17:05 49.82291 8.72978 7846 ft 290 kts 80°
2026-05-05 17:05 49.82700 8.76051 8497 ft 293 kts 80°
2026-05-05 17:05 49.83116 8.79165 9148 ft 297 kts 80°
2026-05-05 17:06 49.83541 8.82317 9790 ft 300 kts 80°
2026-05-05 17:06 49.83972 8.85535 10137 ft 315 kts 80°
2026-05-05 17:06 49.84428 8.88964 10269 ft 335 kts 80°
2026-05-05 17:06 49.84912 8.92611 10390 ft 355 kts 80°
2026-05-05 17:07 49.85424 8.96447 10565 ft 371 kts 80°
2026-05-05 17:07 49.85951 9.00386 11063 ft 375 kts 80°
2026-05-05 17:07 49.86485 9.04368 11616 ft 379 kts 80°
2026-05-05 17:07 49.87019 9.08383 12182 ft 382 kts 80°
2026-05-05 17:08 49.87555 9.12430 12750 ft 384 kts 81°
2026-05-05 17:08 49.88097 9.16503 13324 ft 387 kts 81°
2026-05-05 17:08 49.88642 9.20602 13873 ft 389 kts 81°
2026-05-05 17:08 49.89186 9.24733 14376 ft 392 kts 81°
2026-05-05 17:09 49.89727 9.28889 14893 ft 395 kts 81°
2026-05-05 17:09 49.90270 9.33084 15413 ft 398 kts 81°
2026-05-05 17:09 49.90813 9.37306 15934 ft 401 kts 81°
2026-05-05 17:09 49.91359 9.41561 16455 ft 404 kts 81°
2026-05-05 17:10 49.91910 9.45862 16975 ft 407 kts 81°
2026-05-05 17:10 49.92461 9.50193 17479 ft 410 kts 81°
2026-05-05 17:10 49.93017 9.54550 17995 ft 413 kts 81°
2026-05-05 17:10 49.93578 9.58936 18419 ft 416 kts 81°
2026-05-05 17:11 49.94143 9.63351 18863 ft 418 kts 81°
2026-05-05 17:11 49.94709 9.67780 19292 ft 420 kts 81°
2026-05-05 17:11 49.95276 9.72251 19711 ft 422 kts 81°
2026-05-05 17:11 49.95841 9.76741 20129 ft 425 kts 81°
2026-05-05 17:12 49.96408 9.81252 20537 ft 427 kts 81°
2026-05-05 17:12 49.96978 9.85798 20945 ft 429 kts 81°
2026-05-05 17:12 49.97548 9.90362 21346 ft 431 kts 81°
2026-05-05 17:12 49.98109 9.94892 21736 ft 434 kts 81°
2026-05-05 17:13 49.98679 9.99504 22122 ft 436 kts 81°
2026-05-05 17:13 49.99251 10.04140 22491 ft 438 kts 82°
2026-05-05 17:13 49.99833 10.08852 22851 ft 440 kts 82°
2026-05-05 17:13 50.00412 10.13553 23175 ft 444 kts 82°
2026-05-05 17:14 50.00991 10.18270 23499 ft 446 kts 82°
2026-05-05 17:14 50.01563 10.22960 23795 ft 448 kts 82°
2026-05-05 17:14 50.02143 10.27732 24117 ft 450 kts 82°
2026-05-05 17:14 50.02721 10.32523 24429 ft 452 kts 82°
2026-05-05 17:15 50.03298 10.37323 24751 ft 453 kts 82°
2026-05-05 17:15 50.03878 10.42157 25068 ft 455 kts 82°
2026-05-05 17:15 50.04462 10.47001 25371 ft 456 kts 82°
2026-05-05 17:15 50.05046 10.51879 25668 ft 458 kts 82°
2026-05-05 17:16 50.05626 10.56750 25932 ft 460 kts 82°
2026-05-05 17:16 50.06208 10.61659 26203 ft 462 kts 83°
2026-05-05 17:16 50.06790 10.66584 26489 ft 464 kts 83°
2026-05-05 17:16 50.07345 10.71549 26782 ft 465 kts 86°
2026-05-05 17:17 50.07538 10.76552 27062 ft 463 kts 93°
2026-05-05 17:17 50.07532 10.81571 27376 ft 463 kts 93°
2026-05-05 17:17 50.07527 10.86580 27788 ft 462 kts 93°
2026-05-05 17:17 50.07526 10.91571 28203 ft 460 kts 93°
2026-05-05 17:18 50.07526 10.96484 28608 ft 459 kts 93°
2026-05-05 17:18 50.07526 11.01513 29016 ft 458 kts 93°
2026-05-05 17:18 50.07523 11.06401 29342 ft 458 kts 93°
2026-05-05 17:18 50.07513 11.11351 29672 ft 458 kts 93°
2026-05-05 17:19 50.07498 11.16308 30015 ft 458 kts 94°
2026-05-05 17:19 50.07483 11.21264 30337 ft 457 kts 94°
2026-05-05 17:19 50.07465 11.26212 30661 ft 457 kts 94°
2026-05-05 17:19 50.07447 11.31151 30976 ft 456 kts 94°
2026-05-05 17:20 50.07427 11.36083 31274 ft 455 kts 94°
2026-05-05 17:20 50.07403 11.41007 31574 ft 455 kts 94°
2026-05-05 17:20 50.07378 11.45932 31882 ft 454 kts 94°
2026-05-05 17:20 50.07353 11.50835 32147 ft 454 kts 93°
2026-05-05 17:21 50.07332 11.55778 32321 ft 457 kts 93°
2026-05-05 17:21 50.07305 11.60737 32466 ft 460 kts 94°
2026-05-05 17:21 50.07284 11.64033 32630 ft 460 kts 94°
2026-05-05 17:22 50.07218 11.74012 33236 ft 460 kts 94°
2026-05-05 17:22 50.07182 11.78975 33569 ft 459 kts 94°
2026-05-05 17:22 50.07144 11.83944 33864 ft 458 kts 94°
2026-05-05 17:22 50.07119 11.87219 34020 ft 458 kts 94°
2026-05-05 17:24 50.06871 12.14479 34771 ft 466 kts 94°
2026-05-05 17:24 50.06782 12.24575 34749 ft 467 kts 90°
2026-05-05 17:24 50.07298 12.29582 34756 ft 472 kts 74°
2026-05-05 17:25 50.08486 12.34358 34754 ft 474 kts 69°
2026-05-05 17:25 50.11065 12.43823 34737 ft 475 kts 69°
2026-05-05 17:26 50.13672 12.53312 34764 ft 477 kts 69°
2026-05-05 17:26 50.16233 12.62788 34776 ft 478 kts 69°
2026-05-05 17:27 50.18790 12.72362 34788 ft 478 kts 69°
2026-05-05 17:27 50.21358 12.81959 34792 ft 479 kts 69°
2026-05-05 17:28 50.23913 12.91563 34792 ft 480 kts 69°
2026-05-05 17:28 50.26475 13.01206 34790 ft 480 kts 69°
2026-05-05 17:29 50.29025 13.10832 34795 ft 480 kts 69°
2026-05-05 17:29 50.31567 13.20482 34784 ft 479 kts 69°
2026-05-05 17:30 50.34093 13.30132 34785 ft 479 kts 69°
2026-05-05 17:30 50.36608 13.39796 34788 ft 479 kts 69°
2026-05-05 17:31 50.39118 13.49466 34793 ft 479 kts 69°
2026-05-05 17:31 50.41622 13.59153 34791 ft 479 kts 69°
2026-05-05 17:32 50.44120 13.68836 34790 ft 479 kts 69°
2026-05-05 17:32 50.46598 13.78459 34791 ft 479 kts 69°
2026-05-05 17:33 50.49088 13.88227 34788 ft 479 kts 70°
2026-05-05 17:33 50.51533 13.97878 34795 ft 479 kts 70°
2026-05-05 17:34 50.53992 14.07609 34780 ft 479 kts 69°
2026-05-05 17:34 50.56450 14.17365 34784 ft 480 kts 69°
2026-05-05 17:35 50.58900 14.27130 34790 ft 480 kts 69°
2026-05-05 17:35 50.61348 14.36921 34792 ft 481 kts 69°
2026-05-05 17:36 50.63798 14.46720 34795 ft 481 kts 69°
2026-05-05 17:36 50.66234 14.56539 34800 ft 481 kts 69°
2026-05-05 17:37 50.68657 14.66376 34793 ft 481 kts 69°
2026-05-05 17:37 50.71070 14.76203 34798 ft 480 kts 69°
2026-05-05 17:38 50.73470 14.86030 34801 ft 480 kts 69°
2026-05-05 17:38 50.75843 14.95790 34805 ft 479 kts 69°
2026-05-05 17:39 50.78231 15.05615 34797 ft 479 kts 69°
2026-05-05 17:39 50.80611 15.15458 34796 ft 479 kts 70°
2026-05-05 17:40 50.82965 15.25303 34805 ft 478 kts 70°
2026-05-05 17:40 50.85311 15.35145 34805 ft 478 kts 70°
2026-05-05 17:41 50.87658 15.44990 34815 ft 478 kts 70°
2026-05-05 17:41 50.89995 15.54840 34817 ft 477 kts 70°
2026-05-05 17:42 50.92317 15.64684 34825 ft 477 kts 70°
2026-05-05 17:42 50.94637 15.74557 34814 ft 477 kts 70°
2026-05-05 17:43 50.96942 15.84427 34826 ft 477 kts 70°
2026-05-05 17:43 50.99224 15.94244 34828 ft 477 kts 70°
2026-05-05 17:44 51.01504 16.04123 34823 ft 477 kts 70°
2026-05-05 17:44 51.03780 16.14004 34816 ft 476 kts 70°
2026-05-05 17:45 51.06049 16.23904 34819 ft 476 kts 70°
2026-05-05 17:45 51.08308 16.33798 34804 ft 476 kts 70°
2026-05-05 17:46 51.10556 16.43708 34807 ft 476 kts 70°
2026-05-05 17:46 51.12798 16.53615 34812 ft 476 kts 70°
2026-05-05 17:47 51.15029 16.63538 34807 ft 476 kts 70°
2026-05-05 17:47 51.17253 16.73471 34811 ft 475 kts 70°
2026-05-05 17:48 51.19472 16.83404 34801 ft 475 kts 70°
2026-05-05 17:48 51.21677 16.93335 34799 ft 475 kts 70°
2026-05-05 17:49 51.23869 17.03282 34803 ft 475 kts 70°
2026-05-05 17:49 51.25686 17.11551 34804 ft 475 kts 70°
2026-05-05 17:50 51.28219 17.23131 34801 ft 475 kts 70°
2026-05-05 17:50 51.30392 17.33117 34793 ft 476 kts 70°
2026-05-05 17:51 51.32567 17.43130 34793 ft 477 kts 70°
2026-05-05 17:51 51.34382 17.51517 34786 ft 476 kts 70°
2026-05-05 17:52 51.36535 17.61540 34798 ft 476 kts 70°
2026-05-05 17:52 51.38659 17.71500 34797 ft 476 kts 70°
2026-05-05 17:53 51.40788 17.81533 34805 ft 476 kts 70°
2026-05-05 17:53 51.42905 17.91576 34799 ft 476 kts 70°
2026-05-05 17:54 51.45030 18.01640 34788 ft 477 kts 70°
2026-05-05 17:54 51.47146 18.11715 34793 ft 477 kts 71°
2026-05-05 17:55 51.49247 18.21803 34789 ft 476 kts 71°
2026-05-05 17:55 51.51338 18.31896 34791 ft 476 kts 71°
2026-05-05 17:56 51.53416 18.41989 34788 ft 476 kts 71°
2026-05-05 17:56 51.54452 18.47046 34133 ft 480 kts 71°
2026-05-05 17:56 51.55499 18.52166 33165 ft 486 kts 71°
2026-05-05 17:56 51.56469 18.57400 32224 ft 491 kts 77°
2026-05-05 17:57 51.56971 18.62820 31587 ft 487 kts 87°
2026-05-05 17:57 51.57069 18.68227 31332 ft 482 kts 89°
2026-05-05 17:57 51.57150 18.73600 31079 ft 480 kts 89°
2026-05-05 17:57 51.57230 18.78902 30830 ft 480 kts 89°
2026-05-05 17:58 51.57306 18.84271 30583 ft 480 kts 89°
2026-05-05 17:58 51.57374 18.89631 30337 ft 480 kts 89°
2026-05-05 17:58 51.57436 18.94995 30094 ft 480 kts 90°
2026-05-05 17:58 51.57495 19.00377 29831 ft 480 kts 90°
2026-05-05 17:59 51.57614 19.05766 28675 ft 487 kts 83°
2026-05-05 17:59 51.58399 19.11108 27277 ft 498 kts 71°
2026-05-05 17:59 51.59570 19.16385 26116 ft 503 kts 70°
2026-05-05 17:59 51.60758 19.21656 25408 ft 498 kts 70°
2026-05-05 18:00 51.61936 19.26863 24736 ft 493 kts 70°
2026-05-05 18:00 51.63104 19.32016 24089 ft 489 kts 70°
2026-05-05 18:00 51.64264 19.37143 23456 ft 484 kts 70°
2026-05-05 18:00 51.65407 19.42222 22663 ft 481 kts 70°
2026-05-05 18:01 51.66531 19.47258 21890 ft 477 kts 70°
2026-05-05 18:01 51.67641 19.52265 21187 ft 472 kts 70°
2026-05-05 18:01 51.68732 19.57208 20319 ft 464 kts 70°
2026-05-05 18:01 51.69805 19.62085 19431 ft 456 kts 71°
2026-05-05 18:02 51.70844 19.66812 18867 ft 440 kts 71°
2026-05-05 18:02 51.71848 19.71393 18307 ft 427 kts 71°
2026-05-05 18:02 51.72814 19.75793 17734 ft 416 kts 71°
2026-05-05 18:02 51.73767 19.80129 17222 ft 403 kts 71°
2026-05-05 18:03 51.74692 19.84347 16723 ft 398 kts 71°
2026-05-05 18:03 51.75613 19.88559 16225 ft 398 kts 71°
2026-05-05 18:03 51.76526 19.92759 15719 ft 396 kts 71°
2026-05-05 18:03 51.77440 19.96964 15203 ft 395 kts 71°
2026-05-05 18:04 51.78344 20.01129 14678 ft 393 kts 72°
2026-05-05 18:04 51.79244 20.05293 14151 ft 392 kts 72°
2026-05-05 18:04 51.80139 20.09444 13607 ft 391 kts 72°
2026-05-05 18:04 51.81031 20.13589 13017 ft 390 kts 72°
2026-05-05 18:05 51.81917 20.17710 12463 ft 387 kts 72°
2026-05-05 18:05 51.82795 20.21813 11900 ft 385 kts 72°
2026-05-05 18:05 51.83664 20.25886 11354 ft 383 kts 72°
2026-05-05 18:05 51.84529 20.29938 10891 ft 377 kts 73°
2026-05-05 18:06 51.85372 20.33874 10766 ft 363 kts 73°
2026-05-05 18:06 51.85913 20.36394 10683 ft 354 kts 73°
2026-05-05 18:06 51.86965 20.41311 10503 ft 337 kts 73°
2026-05-05 18:06 51.87715 20.44836 10379 ft 326 kts 73°
2026-05-05 18:07 51.88440 20.48265 10146 ft 320 kts 73°
2026-05-05 18:07 51.89149 20.51627 10028 ft 314 kts 73°
2026-05-05 18:07 51.89853 20.54980 9970 ft 315 kts 73°
2026-05-05 18:07 51.90553 20.58327 9496 ft 320 kts 73°
2026-05-05 18:08 51.91262 20.61713 9231 ft 315 kts 73°
2026-05-05 18:08 51.91966 20.65066 8816 ft 315 kts 73°
2026-05-05 18:08 51.92674 20.68445 8309 ft 319 kts 73°
2026-05-05 18:08 51.93389 20.71858 7843 ft 321 kts 73°
2026-05-05 18:09 51.94103 20.75268 7347 ft 316 kts 73°
2026-05-05 18:09 51.94799 20.78584 6877 ft 305 kts 73°
2026-05-05 18:09 51.95475 20.81802 6423 ft 299 kts 73°
2026-05-05 18:09 51.96138 20.84975 5959 ft 296 kts 73°
2026-05-05 18:10 51.96792 20.88125 5479 ft 294 kts 73°
2026-05-05 18:10 51.97441 20.91255 5120 ft 292 kts 73°
2026-05-05 18:10 51.98088 20.94387 4800 ft 293 kts 73°
2026-05-05 18:10 51.98730 20.97511 4490 ft 291 kts 73°
2026-05-05 18:11 51.99361 21.00588 4133 ft 280 kts 74°
2026-05-05 18:11 51.99962 21.03500 3809 ft 265 kts 74°
2026-05-05 18:11 52.00660 21.06227 3506 ft 259 kts 56°
2026-05-05 18:11 52.02027 21.07954 3192 ft 248 kts 15°
2026-05-05 18:12 52.03641 21.07961 2931 ft 227 kts 335°
2026-05-05 18:12 52.04974 21.06894 2697 ft 202 kts 326°
2026-05-05 18:12 52.06141 21.05836 2405 ft 183 kts 326°
2026-05-05 18:12 52.07221 21.04880 2188 ft 170 kts 326°
2026-05-05 18:13 52.08247 21.03981 1968 ft 165 kts 326°
2026-05-05 18:13 52.09254 21.03101 1760 ft 163 kts 327°
2026-05-05 18:13 52.10252 21.02230 1539 ft 163 kts 327°
2026-05-05 18:13 52.11259 21.01349 1339 ft 165 kts 327°
2026-05-05 18:14 52.12263 21.00474 1116 ft 161 kts 329°
2026-05-05 18:14 52.13250 20.99619 895 ft 160 kts 330°
2026-05-05 18:14 52.14226 20.98772 622 ft 159 kts 329°
2026-05-05 18:14 52.15197 20.97921 447 ft 158 kts 330°
2026-05-05 18:15 52.16157 20.97090 349 ft 147 kts 331°
2026-05-05 18:15 52.16913 20.96411 337 ft 92 kts 330°
2026-05-05 18:15 52.17259 20.96120 335 ft 24 kts 339°
2026-05-05 18:15 52.17403 20.96066 335 ft 18 kts 356°
2026-05-05 18:16 52.17515 20.96063 338 ft 15 kts 360°
2026-05-05 18:16 52.17580 20.96131 338 ft 9 kts 75°
2026-05-05 18:16 52.17581 20.96157 338 ft 0 kts 87°
2026-05-05 18:17 52.17582 20.96165 338 ft 1 kts 87°
2026-05-05 18:17 52.17579 20.96204 339 ft 6 kts 103°
2026-05-05 18:17 52.17540 20.96267 337 ft 10 kts 151°
2026-05-05 18:18 52.17464 20.96334 337 ft 14 kts 144°
2026-05-05 18:18 52.17481 20.96474 336 ft 14 kts 63°
2026-05-05 18:18 52.17557 20.96534 335 ft 14 kts 341°
2026-05-05 18:18 52.17646 20.96461 338 ft 15 kts 332°
2026-05-05 18:19 52.17737 20.96380 338 ft 12 kts 332°
2026-05-05 18:19 52.17760 20.96353 336 ft 1 kts 308°
2026-05-05 18:19 52.17748 20.96312 339 ft 8 kts 237°
2026-05-05 18:19 52.17723 20.96233 337 ft 5 kts 242°
2026-05-05 18:20 52.17721 20.96228 338 ft 0 kts 242°